Regional Weather Roundup
Issued by NWS

Home | Current Version | Previous Version | Text Only | Print | Product List | Glossary Off
Versions: 1 2 3 4 5 6 7 8 9 10 11 12 13 14 15 16 17 18 19 20 21 22 23 24 25 26 27 28 29 30 31 32 33 34 35 36 37 38 39 40 41 42 43 44 45 46 47 48 49 50

000
ASUS43 KIND 061109
RWRIN

WEATHER ROUNDUP FOR INDIANA
NATIONAL WEATHER SERVICE INDIANAPOLIS IN
700 AM EDT FRI MAY 06 2016

NOTE: "FAIR" INDICATES FEW OR NO CLOUDS BELOW 12,000 FEET WITH NO
SIGNIFICANT WEATHER AND/OR OBSTRUCTIONS TO VISIBILITY.

* - STATION DOES NOT REPORT WEATHER SUCH AS PRECIPITATION OR FOG.

+ - STATION NOT QUALITY CONTROLLED BY THE NATIONAL WEATHER SERVICE.
    USE DATA WITH CAUTION...ESPECIALLY DEWPOINT AND RELATIVE
    HUMIDITY OBSERVATIONS.

INZ001>003-010>013-019-020-061200-
NORTHWEST INDIANA

CITY           SKY/WX    TMP DP  RH WIND       PRES   REMARKS
GARY /AIRPORT/ PTCLDY    39  39 100 CALM      29.98F
KNOX *+          N/A     36  34  93 CALM      29.99R
LA PORTE +     CLEAR    N/A N/A N/A CALM      29.99S
MICHIGAN CITY+ CLEAR     36  36 100 CALM      29.99S FOG
MONTICELLO +   CLEAR     38  35  87 CALM      29.99R FOG
RENSSELAER +   CLEAR     41  41 100 CALM      30.00R
VALPARAISO     CLEAR     41  38  89 W5        29.99R

$$

LMZ046-743>745-061200-
SOUTHERN LAKE MICHIGAN

STATION/POSITION TIME  TEMP    WIND        PRES    WAVE
                       AIR SEA DIR/SP/G            HT
                 (UTC) (F)     (DEG/KT/KT) (MB)    (FT)
BURNS HARBOR     1102   44     190/  6/  7 1015.9S
MICHIGAN CITY    1000   43     160/  4/  5   N/A

$$

INZ004-005-014>016-021>024-061200-
NORTH CENTRAL INDIANA

CITY           SKY/WX    TMP DP  RH WIND       PRES   REMARKS
ELKHART        PTCLDY    36  36 100 W6        29.98
GOSHEN         CLEAR     40  36  86 CALM      29.97R
LOGANSPORT +   CLEAR     37  36  93 CALM      29.99S
PERU/GRISSOM   PTCLDY    41  39  93 W6        29.97R
ROCHESTER +    PTCLDY    41  41 100 CALM      29.98S
SOUTH BEND     CLEAR     35  34  96 CALM      29.98R
WARSAW +       CLEAR     36  36 100 CALM      29.97R

$$

INZ006>009-017-018-025>027-061200-
NORTHEAST INDIANA

CITY           SKY/WX    TMP DP  RH WIND       PRES   REMARKS
ANGOLA *+        N/A     41  39  93 CALM      29.95R
AUBURN +       CLEAR     43  36  75 NW3       29.96R
FORT WAYNE     PTCLDY    45  36  70 NW5       29.97R
HUNTINGTON +   CLEAR     42  37  82 CALM      29.97R

$$

INZ028-029-035-036-043>045-051>053-061200-
WEST CENTRAL INDIANA

CITY           SKY/WX    TMP DP  RH WIND       PRES   REMARKS
CRAWFORDSVL +  CLEAR     38  38 100 CALM      29.99S FOG
GREENCASTLE +  CLEAR     41  41 100 CALM      30.00R
LAFAYETTE      PTCLDY    39  38  96 CALM      30.00R FOG
TERRE HAUTE    CLEAR     42  39  89 CALM      30.01R FOG

$$

INZ030>032-037>040-046>048-054>057-064-065-061200-
CENTRAL INDIANA

CITY           SKY/WX    TMP DP  RH WIND       PRES   REMARKS
CP ATTERBURY + CLEAR     43  39  87 NW3       29.98R
COLUMBUS       CLEAR     45  43  93 NW5       29.98
FISHERS *+     CLEAR     39  39 100 CALM      29.99R
FRANKFORT +      N/A     39  38  96 CALM      30.01R FOG
GREENWOOD *+   CLEAR     43  41  93 NW3       29.99R
INDIANAPOLIS   PTCLDY    44  37  76 N3        29.97R
-EAGLE CREEK   CLEAR     46  40  79 NW6       29.98R
KOKOMO *+      CLEAR     39  36  87 W6        29.98R
MARION +       CLEAR     42  38  87 NW3       29.98R
SHELBYVILLE    CLEAR     45  39  79 NW6       29.97R
ZIONSVILLE +   CLEAR     40  38  90 CALM      29.99R

$$

INZ033-034-041-042-049-050-058-059-061200-
EAST CENTRAL INDIANA

CITY           SKY/WX    TMP DP  RH WIND       PRES   REMARKS
MUNCIE         CLEAR     44  38  79 NW6       29.96R

$$

INZ060-061-067>069-081>083-085>088-061200-
SOUTHWEST INDIANA

CITY           SKY/WX    TMP DP  RH WIND       PRES   REMARKS
EVANSVILLE     CLEAR     46  42  86 CALM      30.02R
HUNTINGBURG *+ CLEAR     45  39  81 CALM      30.00S
WASHINGTON +   CLEAR     44  44 100 NW3       30.00R

$$

INZ062-063-066-070>080-084-089>092-061200-
SOUTH CENTRAL AND SOUTHEAST INDIANA

CITY           SKY/WX    TMP DP  RH WIND       PRES   REMARKS
BEDFORD +      CLEAR     43  43 100 CALM      29.99R FOG
BLOOMINGTON    CLEAR     44  40  85 CALM      29.99R
MADISON *+     CLEAR     45  41  87 CALM      29.98R
NORTH VERNON + PTCLDY   N/A N/A N/A CALM      29.97R
SEYMOUR +      CLEAR     43  41  93 CALM      29.98R

$$





USA.gov is the U.S. government's official web portal to all federal, state and local government web resources and services.